Weather History for KBAX - February, 2014

Change the Weather History Date:

Thursday, February 27, 2014

  Actual Average (KP58) Record (KP58)
Temperature  
Mean Temperature 2 °F -  
Max Temperature 10 °F 31 °F 46 °F (2009)
Min Temperature -7 °F 20 °F -8 °F (2015)
Degree Days  
Heating Degree Days 62    
Moisture  
Dew Point -8 °F    
Average Humidity 59    
Maximum Humidity 85    
Minimum Humidity 39    
Precipitation  
Precipitation 0.00 in - - ()
Sea Level Pressure  
Sea Level Pressure 29.80 in    
Wind  
Wind Speed 13 mph (WNW)    
Max Wind Speed 24 mph    
Max Gust Speed 37 mph    
Visibility 8 miles    
Events Snow    
Averages and records for this station are not official NWS values.
T = Trace of Precipitation, MM = Missing Value Source: NWS Daily Summary

Daily Weather History Graph

Daily Weather History Graph

Search for Another Location

Airport or City:

Trip Planner

Search our weather history database for the weather conditions in past years. The results will help you decide how hot, cold, wet, or windy it might be!

Date:

Astronomy

Feb. 27, 2014 Rise Set
Actual Time 7:11 AM EST 6:17 PM EST
Civil Twilight 6:43 AM EST 6:46 PM EST
Nautical Twilight 6:09 AM EST 7:20 PM EST
Astronomical Twilight 5:36 AM EST 7:53 PM EST
Moon 5:46 AM EST 4:40 PM EST
Length of Visible Light 12h 03m
Length of Day
11h 06m
Waning Crescent, 4% of the Moon is Illuminated
Feb 27
Waning Crescent
Mar 1
New
Mar 8
First Quarter
Mar 16
Full
Mar 23
Last Quarter

Hourly Weather History & Observations

Time (EST) Temp. Windchill Dew Point Humidity Pressure Visibility Wind Dir Wind Speed Gust Speed Precip Events Conditions
12:15 AM 9.5 °F -6.6 °F 1.6 °F 70% 29.51 in 10.0 mi SW 13.8 mph 20.7 mph N/A   Mostly Cloudy
12:36 AM 8.8 °F -6.8 °F 2.3 °F 75% 29.50 in 10.0 mi SW 12.7 mph 19.6 mph N/A   Mostly Cloudy
12:56 AM 9.1 °F -5.6 °F 3.2 °F 77% 29.49 in 10.0 mi SW 11.5 mph 18.4 mph N/A   Overcast
1:16 AM 9.3 °F -4.6 °F 3.2 °F 76% 29.48 in 10.0 mi SW 10.4 mph 19.6 mph N/A   Scattered Clouds
1:36 AM 9.1 °F -6.4 °F 3.4 °F 77% 29.48 in 10.0 mi SW 12.7 mph 19.6 mph N/A   Clear
1:56 AM 7.7 °F -6.6 °F 2.5 °F 79% 29.47 in 10.0 mi SW 10.4 mph - N/A   Clear
2:16 AM 8.2 °F -3.0 °F 3.2 °F 80% 29.47 in 10.0 mi WSW 6.9 mph - N/A   Mostly Cloudy
2:36 AM 7.7 °F -0.9 °F 2.8 °F 81% 29.47 in 10.0 mi SW 4.6 mph - N/A   Mostly Cloudy
2:56 AM 7.0 °F -4.5 °F 2.3 °F 81% 29.46 in 10.0 mi SSW 6.9 mph - N/A   Scattered Clouds
3:16 AM 6.1 °F -5.6 °F 1.9 °F 83% 29.46 in 7.0 mi SW 6.9 mph - N/A Snow Light Snow
3:36 AM 7.5 °F -2.6 °F 3.2 °F 82% 29.45 in 7.0 mi SSW 5.8 mph - N/A Snow Light Snow
3:56 AM 8.2 °F -4.1 °F 3.9 °F 83% 29.45 in 10.0 mi SW 8.1 mph - N/A Snow Light Snow
4:16 AM 8.6 °F -2.6 °F 4.1 °F 82% 29.45 in 10.0 mi SW 6.9 mph - N/A   Overcast
4:36 AM 8.2 °F -4.1 °F 3.9 °F 83% 29.45 in 10.0 mi SW 8.1 mph - N/A   Overcast
4:56 AM 8.6 °F -2.6 °F 4.5 °F 83% 29.46 in 10.0 mi WSW 6.9 mph - N/A   Overcast
5:16 AM 8.6 °F 0.1 °F 4.5 °F 83% 29.47 in 10.0 mi WSW 4.6 mph - N/A   Overcast
5:36 AM 9.0 °F -2.2 °F 5.0 °F 84% 29.47 in 3.0 mi West 6.9 mph - N/A Snow Light Snow
5:56 AM 10.0 °F -0.9 °F 5.9 °F 83% 29.48 in 2.5 mi West 6.9 mph - N/A Snow Light Snow
6:06 AM 10.0 °F 0.4 °F 5.9 °F 83% 29.49 in 1.8 mi West 5.8 mph - N/A Snow Light Snow
6:39 AM 6.8 °F -9.3 °F 3.2 °F 85% 29.53 in - NNW 12.7 mph 17.3 mph N/A   Overcast
7:06 AM 6.8 °F -13.4 °F 1.4 °F 79% 29.55 in - NNW 20.7 mph 24.2 mph N/A   Overcast
7:19 AM 5.0 °F -14.7 °F -2.2 °F 72% 29.57 in - NNW 18.4 mph 29.9 mph N/A   Overcast
7:39 AM 5.0 °F -16.7 °F -2.2 °F 72% 29.60 in - NNW 23.0 mph 29.9 mph N/A   Overcast
7:58 AM 5.0 °F -15.2 °F -4.0 °F 66% 29.62 in - NNW 19.6 mph 27.6 mph N/A   Overcast
8:18 AM 1.4 °F -21.0 °F -7.6 °F 66% 29.65 in - NNW 21.9 mph 33.4 mph N/A   Mostly Cloudy
8:38 AM 1.4 °F -18.8 °F -9.4 °F 61% 29.67 in - NW 17.3 mph 26.5 mph N/A   Scattered Clouds
8:51 AM 2.3 °F -16.4 °F -10.3 °F 56% 29.67 in - WNW 15.0 mph 23.0 mph N/A   Scattered Clouds
8:57 AM 2.8 °F -15.0 °F -10.7 °F 53% 29.68 in - WNW 13.8 mph 23.0 mph N/A   Clear
9:16 AM 2.3 °F -17.7 °F -10.7 °F 55% 29.69 in - WNW 17.3 mph 28.8 mph N/A   Clear
9:36 AM 2.3 °F -17.7 °F -10.8 °F 54% 29.70 in 1.8 mi WNW 17.3 mph 33.4 mph N/A   Haze
9:56 AM 2.8 °F -17.0 °F -9.9 °F 55% 29.72 in 3.0 mi WNW 17.3 mph 28.8 mph N/A   Haze
10:16 AM 3.2 °F -18.6 °F -9.6 °F 55% 29.73 in 4.0 mi WNW 21.9 mph 29.9 mph N/A   Haze
10:36 AM 3.7 °F -16.9 °F -9.2 °F 55% 29.75 in 2.0 mi WNW 19.6 mph 31.1 mph N/A   Haze
10:56 AM 4.1 °F -16.9 °F -9.6 °F 53% 29.76 in 4.0 mi WNW 20.7 mph 35.7 mph N/A   Haze
11:16 AM 4.5 °F -17.8 °F -9.4 °F 53% 29.78 in 4.0 mi WNW 24.2 mph 34.5 mph N/A   Haze
11:36 AM 4.1 °F -17.4 °F -9.2 °F 54% 29.80 in 2.0 mi WNW 21.9 mph 33.4 mph N/A   Haze
11:56 AM 4.6 °F -16.7 °F -8.7 °F 54% 29.82 in 2.5 mi WNW 21.9 mph 36.8 mph N/A   Haze
12:16 PM 5.4 °F -13.7 °F -8.3 °F 53% 29.83 in 7.0 mi WNW 17.3 mph 34.5 mph N/A   Clear
12:37 PM 5.5 °F -16.4 °F -9.2 °F 51% 29.84 in 4.0 mi NW 24.2 mph 34.5 mph N/A   Haze
12:56 PM 5.9 °F -15.5 °F -9.9 °F 48% 29.86 in 4.0 mi WNW 23.0 mph 31.1 mph N/A   Haze
1:16 PM 6.8 °F -13.4 °F -9.9 °F 46% 29.87 in 7.0 mi NW 20.7 mph 29.9 mph N/A   Clear
1:37 PM 6.8 °F -11.8 °F -11.2 °F 44% 29.88 in 10.0 mi NW 17.3 mph 31.1 mph N/A   Clear
1:56 PM 7.0 °F -12.6 °F -12.1 °F 41% 29.89 in 10.0 mi WNW 19.6 mph 24.2 mph N/A   Clear
2:16 PM 6.6 °F -12.6 °F -12.6 °F 41% 29.90 in 10.0 mi NW 18.4 mph 32.2 mph N/A   Clear
2:37 PM 7.2 °F -12.4 °F -12.5 °F 40% 29.92 in 10.0 mi NW 19.6 mph 27.6 mph N/A   Scattered Clouds
2:56 PM 6.8 °F -13.4 °F -11.4 °F 43% 29.93 in 10.0 mi WNW 20.7 mph 28.8 mph N/A   Scattered Clouds
3:16 PM 6.8 °F -12.9 °F -13.5 °F 39% 29.95 in 10.0 mi WNW 19.6 mph 26.5 mph N/A   Scattered Clouds
3:37 PM 7.0 °F -12.6 °F -12.8 °F 40% 29.96 in 10.0 mi WNW 19.6 mph 25.3 mph N/A   Clear
3:56 PM 6.8 °F -11.8 °F -12.8 °F 40% 29.98 in 10.0 mi NW 17.3 mph 24.2 mph N/A   Clear
4:16 PM 6.6 °F -11.5 °F -12.8 °F 41% 29.99 in 10.0 mi WNW 16.1 mph 24.2 mph N/A   Clear
4:37 PM 5.9 °F -11.2 °F -13.0 °F 42% 30.00 in 10.0 mi WNW 13.8 mph 19.6 mph N/A   Clear
4:56 PM 5.5 °F -12.3 °F -13.0 °F 42% 30.01 in 10.0 mi WNW 15.0 mph - N/A   Clear
5:16 PM 5.0 °F -12.3 °F -13.4 °F 43% 30.03 in 10.0 mi WNW 13.8 mph 18.4 mph N/A   Clear
5:37 PM 4.6 °F -12.8 °F -13.2 °F 44% 30.04 in 10.0 mi WNW 13.8 mph 19.6 mph N/A   Clear
5:56 PM 3.9 °F -11.3 °F -14.3 °F 43% 30.05 in 10.0 mi WNW 10.4 mph - N/A   Clear
6:16 PM 3.2 °F -12.2 °F -14.3 °F 44% 30.07 in 10.0 mi West 10.4 mph 16.1 mph N/A   Clear
6:37 PM 2.3 °F -12.4 °F -13.5 °F 48% 30.08 in 10.0 mi West 9.2 mph - N/A   Clear
6:56 PM 1.4 °F -12.5 °F -13.5 °F 50% 30.09 in 10.0 mi WNW 8.1 mph - N/A   Clear
7:17 PM 1.4 °F -12.5 °F -13.9 °F 49% 30.10 in 10.0 mi WNW 8.1 mph - N/A   Clear
7:37 PM 0.5 °F -12.3 °F -14.6 °F 49% 30.11 in 10.0 mi WNW 6.9 mph - N/A   Clear
7:56 PM -0.0 °F -13.0 °F -14.8 °F 50% 30.12 in 10.0 mi WNW 6.9 mph - N/A   Clear
8:17 PM -0.2 °F -14.4 °F -15.2 °F 49% 30.12 in 10.0 mi WNW 8.1 mph - N/A   Clear
8:37 PM -0.6 °F -14.9 °F -15.3 °F 50% 30.13 in 10.0 mi WNW 8.1 mph - N/A   Clear
8:56 PM -0.8 °F -16.2 °F -15.2 °F 51% 30.14 in 10.0 mi WNW 9.2 mph - N/A   Clear
9:17 PM -1.1 °F -14.3 °F -15.3 °F 51% 30.15 in 10.0 mi WNW 6.9 mph - N/A   Clear
9:37 PM -1.5 °F -13.3 °F -15.5 °F 51% 30.16 in 10.0 mi WNW 5.8 mph - N/A   Clear
9:56 PM -2.4 °F -12.7 °F -15.9 °F 53% 30.17 in 10.0 mi West 4.6 mph - N/A   Clear
10:17 PM -2.6 °F -14.6 °F -15.9 °F 53% 30.17 in 10.0 mi WNW 5.8 mph - N/A   Clear
10:37 PM -2.6 °F -12.9 °F -15.2 °F 55% 30.18 in 10.0 mi WNW 4.6 mph - N/A   Clear
10:56 PM -3.3 °F -13.7 °F -15.2 °F 57% 30.18 in 10.0 mi WNW 4.6 mph - N/A   Clear
11:16 PM -4.2 °F -14.8 °F -15.7 °F 58% 30.18 in 10.0 mi NW 4.6 mph - N/A   Clear
11:36 PM -5.4 °F - -15.5 °F 62% 30.19 in 10.0 mi Calm Calm - N/A   Clear
11:56 PM -7.4 °F -18.6 °F -18.2 °F 59% 30.19 in 10.0 mi West 4.6 mph - N/A   Clear